Eagle, AK

12:17 AM AKST on February 18, 2018 (GMT -0900)
Eagle

Weather History for PAEG - July, 2013

Change the Weather History Date:

Monday, July 22, 2013

  Actual Average (PABN) Record (PABN)
Temperature  
Mean Temperature 60 °F -  
Max Temperature 77 °F 58 °F 73 °F (2002)
Min Temperature 42 °F 49 °F 39 °F (1999)
Degree Days  
Heating Degree Days 6    
Growing Degree Days 10 (Base 50)    
Moisture  
Dew Point 47 °F    
Average Humidity 61    
Maximum Humidity 97    
Minimum Humidity 32    
Precipitation  
Precipitation 0.00 in - - ()
Sea Level Pressure  
Sea Level Pressure 30.10 in    
Wind  
Wind Speed 1 mph (North)    
Max Wind Speed 6 mph    
Max Gust Speed -    
Visibility 10 miles    
Events      
Averages and records for this station are not official NWS values.
T = Trace of Precipitation, MM = Missing Value Source: NWS Daily Summary

Daily Weather History Graph

Daily Weather History Graph

Search for Another Location

Airport or City:

Trip Planner

Search our weather history database for the weather conditions in past years. The results will help you decide how hot, cold, wet, or windy it might be!

Date:

Astronomy

Jul. 22, 2013 Rise Set
Actual Time 3:52 AM AKDT 11:07 PM AKDT
Civil Twilight 2:03 AM AKDT 12:58 AM AKDT
Nautical Twilight Sun does not rise Sun does not rise
Astronomical Twilight Sun does not rise Sun does not rise
Moon 9:59 PM AKDT (7/22) 4:39 AM AKDT (7/22)
Length of Visible Light 22h 55m
Length of Day
19h 15m
Full, 100% of the Moon is Illuminated
Jul 22
Full
Jul 29
Last Quarter
Aug 6
New
Aug 14
First Quarter
Aug 20
Full

Hourly Weather History & Observations

Time (AKDT) Temp. Dew Point Humidity Pressure Visibility Wind Dir Wind Speed Gust Speed Precip Events Conditions
12:53 AM 54.0 °F 48.9 °F 83% 30.11 in 10.0 mi Calm Calm - N/A   Partly Cloudy
1:53 AM 48.9 °F 46.0 °F 90% 30.12 in 10.0 mi Calm Calm - N/A   Clear
2:53 AM 46.0 °F 44.1 °F 93% 30.13 in 10.0 mi Calm Calm - N/A   Clear
3:53 AM 43.0 °F 42.1 °F 97% 30.14 in 10.0 mi Calm Calm - N/A   Clear
4:53 AM 42.1 °F 39.9 °F 92% 30.15 in 10.0 mi Calm Calm - N/A   Clear
5:53 AM 48.0 °F 44.1 °F 86% 30.15 in 10.0 mi Calm Calm - N/A   Clear
6:53 AM 55.9 °F 51.1 °F 84% 30.16 in 10.0 mi Calm Calm - N/A   Clear
7:53 AM 59.0 °F 51.1 °F 75% 30.16 in 10.0 mi Calm Calm - N/A   Clear
8:53 AM 62.1 °F 52.0 °F 70% 30.15 in 10.0 mi Calm Calm - N/A   Clear
9:53 AM 66.0 °F 52.0 °F 60% 30.14 in 10.0 mi Calm Calm - N/A   Clear
10:53 AM 69.1 °F 51.1 °F 53% 30.12 in 10.0 mi NE 3.5 mph - N/A   Clear
11:53 AM 71.1 °F 50.0 °F 47% 30.12 in 10.0 mi WNW 4.6 mph - N/A   Scattered Clouds
12:53 PM 72.0 °F 48.9 °F 44% 30.10 in 10.0 mi NW 5.8 mph - N/A   Scattered Clouds
1:53 PM 73.9 °F 46.0 °F 37% 30.09 in 10.0 mi Calm Calm - N/A   Clear
2:53 PM 75.0 °F 46.9 °F 37% 30.09 in 10.0 mi NNW 4.6 mph - N/A   Clear
3:53 PM 75.0 °F 46.0 °F 36% 30.07 in 10.0 mi Variable 3.5 mph - N/A   Clear
4:53 PM 77.0 °F 48.0 °F 36% 30.06 in 10.0 mi North 3.5 mph - N/A   Clear
5:53 PM 77.0 °F 45.0 °F 32% 30.05 in 10.0 mi Calm Calm - N/A   Clear
6:53 PM 77.0 °F 46.0 °F 33% 30.04 in 10.0 mi Calm Calm - N/A   Clear
7:53 PM 75.0 °F 48.0 °F 38% 30.03 in 10.0 mi North 5.8 mph - N/A   Clear
8:53 PM 73.9 °F 46.9 °F 38% 30.03 in 10.0 mi NE 3.5 mph - N/A   Clear
9:53 PM 66.0 °F 48.9 °F 54% 30.04 in 10.0 mi South 3.5 mph - N/A   Clear
10:53 PM 59.0 °F 50.0 °F 72% 30.05 in 10.0 mi Calm Calm - N/A   Clear
11:53 PM 54.0 °F 46.9 °F 77% 30.06 in 10.0 mi Calm Calm - N/A   Clear